Time,TemperatureF,DewpointF,PressureIn,WindDirection,WindDirectionDegrees,WindSpeedMPH,WindSpeedGustMPH,Humidity,HourlyPrecipIn,Conditions,Clouds,dailyrainin,SoftwareType,DateUTC
2013-03-15 00:00:00,58.5,50.9,30.08,East,90,0.0,0.0,76,0.00,,,0.00,WUHU216HW,2013-03-15 07:00:00,
2013-03-15 00:05:00,58.3,50.8,30.08,NNE,23,0.0,0.0,76,0.00,,,0.00,WUHU216HW,2013-03-15 07:05:00,
2013-03-15 00:10:00,58.1,50.6,30.08,NNE,23,0.0,0.0,76,0.00,,,0.00,WUHU216HW,2013-03-15 07:10:00,
2013-03-15 00:15:00,58.1,50.6,30.08,NNE,23,0.0,0.0,76,0.00,,,0.00,WUHU216HW,2013-03-15 07:15:00,
2013-03-15 00:20:00,58.1,50.9,30.08,NNE,23,0.0,0.0,77,0.00,,,0.00,WUHU216HW,2013-03-15 07:20:00,
2013-03-15 00:25:00,58.0,50.8,30.08,NNE,23,0.0,0.0,77,0.00,,,0.00,WUHU216HW,2013-03-15 07:25:00,
2013-03-15 00:30:00,58.0,50.8,30.08,NNE,23,0.0,0.0,77,0.00,,,0.00,WUHU216HW,2013-03-15 07:30:00,
2013-03-15 00:35:00,57.8,50.9,30.08,NNE,23,0.0,0.0,78,0.00,,,0.00,WUHU216HW,2013-03-15 07:35:00,
2013-03-15 00:40:00,57.8,50.9,30.08,NNE,23,0.0,0.0,78,0.00,,,0.00,WUHU216HW,2013-03-15 07:40:00,
2013-03-15 00:45:00,57.8,50.9,30.07,NNE,23,0.0,0.0,78,0.00,,,0.00,WUHU216HW,2013-03-15 07:45:00,
2013-03-15 00:50:00,57.8,50.9,30.07,NNE,23,0.0,0.0,78,0.00,,,0.00,WUHU216HW,2013-03-15 07:50:00,
2013-03-15 00:55:00,57.8,50.9,30.07,NNE,23,0.0,0.0,78,0.00,,,0.00,WUHU216HW,2013-03-15 07:55:00,
2013-03-15 01:00:00,57.8,51.3,30.07,NNE,23,0.0,0.0,79,0.00,,,0.00,WUHU216HW,2013-03-15 08:00:00,
2013-03-15 01:05:00,57.6,51.1,30.07,NNE,23,0.0,0.0,79,0.00,,,0.00,WUHU216HW,2013-03-15 08:05:00,
2013-03-15 01:10:00,57.4,50.9,30.07,NNE,23,0.0,0.0,79,0.00,,,0.00,WUHU216HW,2013-03-15 08:10:00,
2013-03-15 01:15:00,57.4,50.9,30.08,West,270,0.4,0.9,79,0.00,,,0.00,WUHU216HW,2013-03-15 08:15:00,
2013-03-15 01:20:00,57.4,51.3,30.07,WNW,293,0.0,0.9,80,0.00,,,0.00,WUHU216HW,2013-03-15 08:20:00,
2013-03-15 01:25:00,57.2,50.8,30.07,NNE,23,0.0,0.0,79,0.00,,,0.00,WUHU216HW,2013-03-15 08:25:00,
2013-03-15 01:30:00,57.1,50.9,30.07,NE,56,0.4,0.4,80,0.00,,,0.00,WUHU216HW,2013-03-15 08:30:00,
2013-03-15 01:35:00,56.7,50.6,30.07,East,90,0.0,0.4,80,0.00,,,0.00,WUHU216HW,2013-03-15 08:35:00,
2013-03-15 01:40:00,56.5,50.8,30.07,East,90,0.0,0.0,81,0.00,,,0.00,WUHU216HW,2013-03-15 08:40:00,
2013-03-15 01:45:00,56.5,50.8,30.07,East,90,0.0,0.0,81,0.00,,,0.00,WUHU216HW,2013-03-15 08:45:00,
2013-03-15 01:50:00,56.5,50.8,30.07,East,90,0.0,0.0,81,0.00,,,0.00,WUHU216HW,2013-03-15 08:50:00,
2013-03-15 01:55:00,56.3,50.6,30.07,East,90,0.0,0.0,81,0.00,,,0.00,WUHU216HW,2013-03-15 08:55:00,
2013-03-15 02:00:00,56.3,50.6,30.07,WSW,248,0.0,0.0,81,0.00,,,0.00,WUHU216HW,2013-03-15 09:00:00,
2013-03-15 02:05:00,56.3,50.6,30.07,North,0,0.0,0.4,81,0.00,,,0.00,WUHU216HW,2013-03-15 09:05:00,
2013-03-15 02:10:00,56.3,50.6,30.08,North,0,0.0,0.4,81,0.00,,,0.00,WUHU216HW,2013-03-15 09:10:00,
2013-03-15 02:15:00,56.2,50.4,30.08,North,0,0.0,0.0,81,0.00,,,0.00,WUHU216HW,2013-03-15 09:15:00,
2013-03-15 02:20:00,56.0,50.2,30.07,North,0,0.0,0.0,81,0.00,,,0.00,WUHU216HW,2013-03-15 09:20:00,
2013-03-15 02:25:00,55.8,50.3,30.08,NNE,23,0.0,0.0,82,0.00,,,0.00,WUHU216HW,2013-03-15 09:25:00,
2013-03-15 02:30:00,55.6,51.8,30.08,ENE,74,0.5,0.9,87,0.00,,,0.00,WUHU216HW,2013-03-15 09:30:00,
2013-03-15 02:35:00,55.6,51.5,30.07,ENE,68,0.0,0.9,86,0.00,,,0.00,WUHU216HW,2013-03-15 09:35:00,
2013-03-15 02:40:00,55.6,50.8,30.07,East,90,0.0,0.2,84,0.00,,,0.00,WUHU216HW,2013-03-15 09:40:00,
2013-03-15 02:45:00,55.8,50.9,30.07,SE,135,0.0,0.0,84,0.00,,,0.00,WUHU216HW,2013-03-15 09:45:00,
2013-03-15 02:50:00,55.8,50.7,30.07,SE,135,0.0,0.0,83,0.00,,,0.00,WUHU216HW,2013-03-15 09:50:00,
2013-03-15 02:55:00,55.8,50.3,30.07,SE,135,0.0,0.0,82,0.00,,,0.00,WUHU216HW,2013-03-15 09:55:00,
2013-03-15 03:00:00,55.8,50.3,30.06,ESE,113,0.0,0.0,82,0.00,,,0.00,WUHU216HW,2013-03-15 10:00:00,
2013-03-15 03:05:00,55.8,50.3,30.06,ESE,113,0.0,0.0,82,0.00,,,0.00,WUHU216HW,2013-03-15 10:05:00,
2013-03-15 03:10:00,55.4,50.0,30.06,ESE,113,0.0,0.0,82,0.00,,,0.00,WUHU216HW,2013-03-15 10:10:00,
2013-03-15 03:15:00,55.3,49.8,30.06,ESE,113,0.0,0.0,82,0.00,,,0.00,WUHU216HW,2013-03-15 10:15:00,
2013-03-15 03:20:00,55.3,50.1,30.06,ESE,113,0.0,0.0,83,0.00,,,0.00,WUHU216HW,2013-03-15 10:20:00,
2013-03-15 03:25:00,55.1,49.7,30.06,ESE,113,0.0,0.0,82,0.00,,,0.00,WUHU216HW,2013-03-15 10:25:00,
2013-03-15 03:30:00,55.1,49.7,30.05,SE,135,0.0,0.0,82,0.00,,,0.00,WUHU216HW,2013-03-15 10:30:00,
2013-03-15 03:35:00,55.1,49.7,30.06,SW,225,0.0,0.0,82,0.00,,,0.00,WUHU216HW,2013-03-15 10:35:00,
2013-03-15 03:40:00,54.7,49.3,30.05,SW,225,0.0,0.0,82,0.00,,,0.00,WUHU216HW,2013-03-15 10:40:00,
2013-03-15 03:45:00,54.7,49.3,30.05,SW,225,0.0,0.0,82,0.00,,,0.00,WUHU216HW,2013-03-15 10:45:00,
2013-03-15 03:50:00,54.5,49.1,30.05,SW,225,0.0,0.0,82,0.00,,,0.00,WUHU216HW,2013-03-15 10:50:00,
2013-03-15 03:55:00,54.4,49.0,30.05,SW,225,0.0,0.0,82,0.00,,,0.00,WUHU216HW,2013-03-15 10:55:00,
2013-03-15 04:00:00,54.2,48.8,30.05,ESE,113,0.0,0.0,82,0.00,,,0.00,WUHU216HW,2013-03-15 11:00:00,
2013-03-15 04:05:00,53.8,48.8,30.05,ESE,113,0.0,0.0,83,0.00,,,0.00,WUHU216HW,2013-03-15 11:05:00,
2013-03-15 04:10:00,53.6,48.6,30.05,ESE,113,0.0,0.0,83,0.00,,,0.00,WUHU216HW,2013-03-15 11:10:00,
2013-03-15 04:15:00,53.5,48.2,30.05,ESE,113,0.0,0.0,82,0.00,,,0.00,WUHU216HW,2013-03-15 11:15:00,
2013-03-15 04:20:00,53.1,48.1,30.05,ESE,113,0.0,0.0,83,0.00,,,0.00,WUHU216HW,2013-03-15 11:20:00,
2013-03-15 04:25:00,52.9,48.3,30.05,ESE,113,0.5,0.7,84,0.00,,,0.00,WUHU216HW,2013-03-15 11:25:00,
2013-03-15 04:30:00,53.1,48.7,30.05,SE,135,0.0,0.7,85,0.00,,,0.00,WUHU216HW,2013-03-15 11:30:00,
2013-03-15 04:35:00,53.1,48.4,30.05,SE,135,0.0,0.2,84,0.00,,,0.00,WUHU216HW,2013-03-15 11:35:00,
2013-03-15 04:40:00,53.1,48.4,30.05,ESE,113,0.0,0.2,84,0.00,,,0.00,WUHU216HW,2013-03-15 11:40:00,
2013-03-15 04:45:00,53.1,48.4,30.05,ESE,113,0.0,0.0,84,0.00,,,0.00,WUHU216HW,2013-03-15 11:45:00,
2013-03-15 04:50:00,52.9,48.3,30.05,ESE,113,0.0,0.0,84,0.00,,,0.00,WUHU216HW,2013-03-15 11:50:00,
2013-03-15 04:55:00,52.7,48.1,30.05,East,90,0.0,0.0,84,0.00,,,0.00,WUHU216HW,2013-03-15 11:55:00,
2013-03-15 05:00:00,52.6,48.2,30.05,ESE,113,0.0,0.0,85,0.00,,,0.00,WUHU216HW,2013-03-15 12:00:00,
2013-03-15 05:05:00,52.9,48.8,30.05,ESE,113,0.2,0.2,86,0.00,,,0.00,WUHU216HW,2013-03-15 12:05:00,
2013-03-15 05:10:00,52.9,48.8,30.05,ESE,113,0.0,0.2,86,0.00,,,0.00,WUHU216HW,2013-03-15 12:10:00,
2013-03-15 05:15:00,53.1,49.0,30.05,ESE,113,0.7,0.7,86,0.00,,,0.00,WUHU216HW,2013-03-15 12:15:00,
2013-03-15 05:20:00,53.5,50.0,30.05,SE,130,0.4,0.7,88,0.00,,,0.00,WUHU216HW,2013-03-15 12:20:00,
2013-03-15 05:25:00,53.6,49.9,30.05,SW,231,0.8,1.3,87,0.00,,,0.00,WUHU216HW,2013-03-15 12:25:00,
2013-03-15 05:30:00,53.3,49.1,30.05,SE,135,1.1,1.3,86,0.00,,,0.00,WUHU216HW,2013-03-15 12:30:00,
2013-03-15 05:35:00,53.1,49.0,30.06,SW,225,0.7,1.3,86,0.00,,,0.00,WUHU216HW,2013-03-15 12:35:00,
2013-03-15 05:40:00,52.9,48.8,30.07,South,191,0.4,0.9,86,0.00,,,0.00,WUHU216HW,2013-03-15 12:40:00,
2013-03-15 05:45:00,52.7,48.6,30.07,SW,225,0.0,0.9,86,0.00,,,0.00,WUHU216HW,2013-03-15 12:45:00,
2013-03-15 05:50:00,52.6,48.4,30.07,NW,315,0.0,0.2,86,0.00,,,0.00,WUHU216HW,2013-03-15 12:50:00,
2013-03-15 05:55:00,52.4,48.2,30.07,ESE,118,0.3,0.4,86,0.00,,,0.00,WUHU216HW,2013-03-15 12:55:00,
2013-03-15 06:00:00,52.6,49.1,30.07,ESE,119,0.2,0.4,88,0.00,,,0.00,WUHU216HW,2013-03-15 13:00:00,
2013-03-15 06:05:00,52.6,49.1,30.07,SE,135,0.3,0.4,88,0.00,,,0.00,WUHU216HW,2013-03-15 13:05:00,
2013-03-15 06:10:00,52.7,49.2,30.08,SE,135,0.0,0.4,88,0.00,,,0.00,WUHU216HW,2013-03-15 13:10:00,
2013-03-15 06:15:00,52.7,49.0,30.08,SSE,158,0.4,0.4,87,0.00,,,0.00,WUHU216HW,2013-03-15 13:15:00,
2013-03-15 06:20:00,52.7,49.2,30.08,SE,131,0.5,0.9,88,0.00,,,0.00,WUHU216HW,2013-03-15 13:20:00,
2013-03-15 06:25:00,52.7,49.2,30.08,East,90,0.0,0.9,88,0.00,,,0.00,WUHU216HW,2013-03-15 13:25:00,
2013-03-15 06:30:00,52.7,49.2,30.08,SE,135,0.2,0.4,88,0.00,,,0.00,WUHU216HW,2013-03-15 13:30:00,
2013-03-15 06:35:00,52.7,49.2,30.08,ESE,113,0.0,0.2,88,0.00,,,0.00,WUHU216HW,2013-03-15 13:35:00,
2013-03-15 06:40:00,52.6,49.1,30.08,SE,135,0.0,0.0,88,0.00,,,0.00,WUHU216HW,2013-03-15 13:40:00,
2013-03-15 06:45:00,52.6,49.1,30.08,SE,135,0.0,0.9,88,0.00,,,0.00,WUHU216HW,2013-03-15 13:45:00,
2013-03-15 06:50:00,52.7,49.6,30.08,ESE,113,0.0,0.9,89,0.00,,,0.00,WUHU216HW,2013-03-15 13:50:00,
2013-03-15 06:55:00,52.6,49.1,30.08,SE,135,0.0,0.0,88,0.00,,,0.00,WUHU216HW,2013-03-15 13:55:00,
2013-03-15 07:00:00,52.6,49.1,30.08,ESE,113,0.2,0.2,88,0.00,,,0.00,WUHU216HW,2013-03-15 14:00:00,
2013-03-15 07:05:00,52.6,49.1,30.08,ESE,113,0.0,0.2,88,0.00,,,0.00,WUHU216HW,2013-03-15 14:05:00,
2013-03-15 07:10:00,52.4,48.9,30.08,ESE,113,0.0,0.2,88,0.00,,,0.00,WUHU216HW,2013-03-15 14:10:00,
2013-03-15 07:15:00,52.2,49.1,30.08,ESE,107,0.2,0.2,89,0.00,,,0.00,WUHU216HW,2013-03-15 14:15:00,
2013-03-15 07:20:00,52.2,49.1,30.08,SE,135,0.2,0.4,89,0.00,,,0.00,WUHU216HW,2013-03-15 14:20:00,
2013-03-15 07:25:00,52.0,48.9,30.08,ESE,102,0.5,0.9,89,0.00,,,0.00,WUHU216HW,2013-03-15 14:25:00,
2013-03-15 07:30:00,52.0,48.9,30.08,SE,135,0.9,1.6,89,0.00,,,0.00,WUHU216HW,2013-03-15 14:30:00,
2013-03-15 07:35:00,52.2,49.6,30.08,ESE,123,0.5,1.6,91,0.00,,,0.00,WUHU216HW,2013-03-15 14:35:00,
2013-03-15 07:40:00,52.4,50.0,30.08,ESE,114,0.6,1.1,92,0.00,,,0.00,WUHU216HW,2013-03-15 14:40:00,
2013-03-15 07:45:00,52.7,50.4,30.08,SSW,203,1.3,1.3,92,0.00,,,0.00,WUHU216HW,2013-03-15 14:45:00,
2013-03-15 07:50:00,53.3,50.9,30.08,East,90,1.1,1.3,92,0.00,,,0.00,WUHU216HW,2013-03-15 14:50:00,
2013-03-15 07:55:00,53.6,51.3,30.08,SE,138,1.3,1.8,92,0.00,,,0.00,WUHU216HW,2013-03-15 14:55:00,
2013-03-15 08:00:00,54.0,51.7,30.08,SE,135,1.1,2.5,92,0.00,,,0.00,WUHU216HW,2013-03-15 15:00:00,
2013-03-15 08:05:00,54.7,52.4,30.08,SSE,158,1.1,2.5,92,0.00,,,0.00,WUHU216HW,2013-03-15 15:05:00,
2013-03-15 08:10:00,55.3,52.9,30.08,SSW,203,1.1,2.5,92,0.00,,,0.00,WUHU216HW,2013-03-15 15:10:00,
2013-03-15 08:15:00,55.8,53.2,30.09,SE,135,1.3,2.2,91,0.00,,,0.00,WUHU216HW,2013-03-15 15:15:00,
2013-03-15 08:20:00,56.2,53.3,30.09,SE,136,1.4,2.7,90,0.00,,,0.00,WUHU216HW,2013-03-15 15:20:00,
2013-03-15 08:25:00,56.5,53.6,30.08,SE,135,1.6,2.7,90,0.00,,,0.00,WUHU216HW,2013-03-15 15:25:00,
2013-03-15 08:30:00,57.1,53.8,30.09,SSW,203,1.1,2.2,89,0.00,,,0.00,WUHU216HW,2013-03-15 15:30:00,
2013-03-15 08:35:00,57.6,54.4,30.09,SSE,158,1.8,2.2,89,0.00,,,0.00,WUHU216HW,2013-03-15 15:35:00,
2013-03-15 08:40:00,58.0,54.5,30.09,SSW,208,1.3,1.8,88,0.00,,,0.00,WUHU216HW,2013-03-15 15:40:00,
2013-03-15 08:45:00,58.5,55.0,30.09,SW,225,1.6,2.5,88,0.00,,,0.00,WUHU216HW,2013-03-15 15:45:00,
2013-03-15 08:50:00,58.9,55.4,30.09,SSW,196,1.6,2.5,88,0.00,,,0.00,WUHU216HW,2013-03-15 15:50:00,
2013-03-15 08:55:00,59.4,55.5,30.09,SSW,209,1.3,2.7,87,0.00,,,0.00,WUHU216HW,2013-03-15 15:55:00,
2013-03-15 09:00:00,59.6,55.7,30.09,South,180,1.8,2.7,87,0.00,,,0.00,WUHU216HW,2013-03-15 16:00:00,
2013-03-15 09:05:00,59.8,55.6,30.09,SSE,158,1.8,2.5,86,0.00,,,0.00,WUHU216HW,2013-03-15 16:05:00,
2013-03-15 09:10:00,60.1,56.0,30.09,SSW,199,1.4,2.7,86,0.00,,,0.00,WUHU216HW,2013-03-15 16:10:00,
2013-03-15 09:15:00,60.5,56.0,30.09,SE,135,2.5,2.7,85,0.00,,,0.00,WUHU216HW,2013-03-15 16:15:00,
2013-03-15 09:20:00,60.8,56.3,30.09,SSE,157,1.5,2.5,85,0.00,,,0.00,WUHU216HW,2013-03-15 16:20:00,
2013-03-15 09:25:00,61.4,56.5,30.09,SSE,168,1.7,2.7,84,0.00,,,0.00,WUHU216HW,2013-03-15 16:25:00,
2013-03-15 09:30:00,62.1,57.3,30.09,South,178,2.1,3.6,84,0.00,,,0.00,WUHU216HW,2013-03-15 16:30:00,
2013-03-15 09:35:00,62.6,57.3,30.09,SSW,201,1.8,3.6,83,0.00,,,0.00,WUHU216HW,2013-03-15 16:35:00,
2013-03-15 09:40:00,63.2,57.6,30.08,ESE,113,2.9,3.1,82,0.00,,,0.00,WUHU216HW,2013-03-15 16:40:00,
2013-03-15 09:45:00,63.5,57.6,30.09,WSW,248,2.5,3.1,81,0.00,,,0.00,WUHU216HW,2013-03-15 16:45:00,
2013-03-15 09:50:00,64.1,58.5,30.09,South,180,2.5,3.6,82,0.00,,,0.00,WUHU216HW,2013-03-15 16:50:00,
2013-03-15 09:55:00,64.6,58.3,30.08,SSE,158,2.2,3.6,80,0.00,,,0.00,WUHU216HW,2013-03-15 16:55:00,
2013-03-15 10:00:00,65.2,58.9,30.08,SW,225,3.4,3.4,80,0.00,,,0.00,WUHU216HW,2013-03-15 17:00:00,
2013-03-15 10:05:00,65.9,58.9,30.08,SW,225,2.9,4.0,78,0.00,,,0.00,WUHU216HW,2013-03-15 17:05:00,
2013-03-15 10:10:00,66.2,58.4,30.08,SE,135,4.0,4.0,76,0.00,,,0.00,WUHU216HW,2013-03-15 17:10:00,
2013-03-15 10:15:00,66.6,58.4,30.08,SSW,198,3.5,5.4,75,0.00,,,0.00,WUHU216HW,2013-03-15 17:15:00,
2013-03-15 10:20:00,67.3,59.1,30.08,SE,135,3.4,5.4,75,0.00,,,0.00,WUHU216HW,2013-03-15 17:20:00,
2013-03-15 10:25:00,67.9,58.5,30.09,SSE,149,3.0,4.9,72,0.00,,,0.00,WUHU216HW,2013-03-15 17:25:00,
2013-03-15 10:30:00,68.2,58.9,30.08,South,173,3.3,4.9,72,0.00,,,0.00,WUHU216HW,2013-03-15 17:30:00,
2013-03-15 10:35:00,68.2,58.5,30.08,WSW,248,4.0,5.4,71,0.00,,,0.00,WUHU216HW,2013-03-15 17:35:00,
2013-03-15 10:40:00,68.4,58.3,30.08,South,171,4.2,5.4,70,0.00,,,0.00,WUHU216HW,2013-03-15 17:40:00,
2013-03-15 10:45:00,68.6,58.9,30.08,WSW,248,6.3,6.3,71,0.00,,,0.00,WUHU216HW,2013-03-15 17:45:00,
2013-03-15 10:50:00,68.9,58.8,30.07,SSW,194,4.0,6.3,70,0.00,,,0.00,WUHU216HW,2013-03-15 17:50:00,
2013-03-15 10:55:00,69.3,59.1,30.08,SSW,203,4.3,6.3,70,0.00,,,0.00,WUHU216HW,2013-03-15 17:55:00,
2013-03-15 11:00:00,69.7,59.1,30.07,SSW,199,4.5,6.0,69,0.00,,,0.00,WUHU216HW,2013-03-15 18:00:00,
2013-03-15 11:05:00,69.8,59.1,30.07,SSW,194,4.6,6.0,69,0.00,,,0.00,WUHU216HW,2013-03-15 18:05:00,
2013-03-15 11:10:00,70.2,58.7,30.07,South,187,4.2,6.5,67,0.00,,,0.00,WUHU216HW,2013-03-15 18:10:00,
2013-03-15 11:15:00,70.4,58.9,30.07,South,171,4.4,6.5,67,0.00,,,0.00,WUHU216HW,2013-03-15 18:15:00,
2013-03-15 11:20:00,70.7,58.8,30.08,SSE,168,4.9,6.7,66,0.00,,,0.00,WUHU216HW,2013-03-15 18:20:00,
2013-03-15 11:25:00,70.9,58.5,30.08,SSW,204,4.4,7.4,65,0.00,,,0.00,WUHU216HW,2013-03-15 18:25:00,
2013-03-15 11:30:00,71.3,58.9,30.07,SSE,165,5.1,7.4,65,0.00,,,0.00,WUHU216HW,2013-03-15 18:30:00,
2013-03-15 11:35:00,71.5,59.5,30.07,SSE,158,4.9,6.9,66,0.00,,,0.00,WUHU216HW,2013-03-15 18:35:00,
2013-03-15 11:40:00,71.6,59.7,30.07,SE,135,3.4,6.9,66,0.00,,,0.00,WUHU216HW,2013-03-15 18:40:00,
2013-03-15 11:45:00,71.8,59.0,30.07,SSW,203,6.0,6.0,64,0.00,,,0.00,WUHU216HW,2013-03-15 18:45:00,
2013-03-15 11:50:00,72.0,59.1,30.07,SSE,165,4.1,6.0,64,0.00,,,0.00,WUHU216HW,2013-03-15 18:50:00,
2013-03-15 11:55:00,72.4,59.5,30.07,South,173,3.8,6.0,64,0.00,,,0.00,WUHU216HW,2013-03-15 18:55:00,
2013-03-15 12:00:00,72.7,59.4,30.07,SSW,208,3.7,5.4,63,0.00,,,0.00,WUHU216HW,2013-03-15 19:00:00,
2013-03-15 12:05:00,72.7,59.0,30.07,SW,225,4.3,5.4,62,0.00,,,0.00,WUHU216HW,2013-03-15 19:05:00,
2013-03-15 12:10:00,72.7,59.0,30.07,SSW,193,2.0,5.4,62,0.00,,,0.00,WUHU216HW,2013-03-15 19:10:00,
2013-03-15 12:15:00,72.7,58.1,30.07,SSW,206,3.0,5.1,60,0.00,,,0.00,WUHU216HW,2013-03-15 19:15:00,
2013-03-15 12:20:00,72.9,58.7,30.07,SSE,157,4.0,4.7,61,0.00,,,0.00,WUHU216HW,2013-03-15 19:20:00,
2013-03-15 12:25:00,73.3,58.5,30.06,SSW,206,4.3,5.8,60,0.00,,,0.00,WUHU216HW,2013-03-15 19:25:00,
2013-03-15 12:30:00,73.4,58.7,30.07,South,170,3.9,5.8,60,0.00,,,0.00,WUHU216HW,2013-03-15 19:30:00,
2013-03-15 12:35:00,73.4,57.7,30.07,WSW,248,5.6,5.6,58,0.00,,,0.00,WUHU216HW,2013-03-15 19:35:00,
2013-03-15 12:40:00,73.3,58.1,30.06,SSW,209,2.0,5.6,59,0.00,,,0.00,WUHU216HW,2013-03-15 19:40:00,
2013-03-15 12:45:00,73.4,58.7,30.06,WSW,237,2.6,4.5,60,0.00,,,0.00,WUHU216HW,2013-03-15 19:45:00,
2013-03-15 12:50:00,73.8,59.0,30.06,SSE,158,4.0,4.5,60,0.00,,,0.00,WUHU216HW,2013-03-15 19:50:00,
2013-03-15 12:55:00,73.8,59.0,30.06,WSW,248,2.5,4.0,60,0.00,,,0.00,WUHU216HW,2013-03-15 19:55:00,
2013-03-15 13:00:00,74.0,59.2,30.05,West,274,1.9,4.0,60,0.00,,,0.00,WUHU216HW,2013-03-15 20:00:00,
2013-03-15 13:05:00,74.0,59.2,30.05,SSE,158,2.5,4.7,60,0.00,,,0.00,WUHU216HW,2013-03-15 20:05:00,
2013-03-15 13:10:00,74.2,59.4,30.05,WSW,248,3.6,4.7,60,0.00,,,0.00,WUHU216HW,2013-03-15 20:10:00,
2013-03-15 13:15:00,74.2,59.4,30.05,SW,225,3.1,4.3,60,0.00,,,0.00,WUHU216HW,2013-03-15 20:15:00,
2013-03-15 13:20:00,74.3,59.6,30.05,WNW,293,1.6,4.3,60,0.00,,,0.00,WUHU216HW,2013-03-15 20:20:00,
2013-03-15 13:25:00,74.5,59.2,30.05,South,171,2.6,4.7,59,0.00,,,0.00,WUHU216HW,2013-03-15 20:25:00,
2013-03-15 13:30:00,74.5,59.8,30.05,South,180,1.6,5.6,60,0.00,,,0.00,WUHU216HW,2013-03-15 20:30:00,
2013-03-15 13:35:00,74.9,59.6,30.04,WNW,299,1.7,5.6,59,0.00,,,0.00,WUHU216HW,2013-03-15 20:35:00,
2013-03-15 13:40:00,74.9,60.1,30.04,SSW,205,2.2,4.7,60,0.00,,,0.00,WUHU216HW,2013-03-15 20:40:00,
2013-03-15 13:45:00,74.9,59.6,30.03,WSW,248,2.7,4.7,59,0.00,,,0.00,WUHU216HW,2013-03-15 20:45:00,
2013-03-15 13:50:00,74.9,59.6,30.03,East,90,3.4,4.5,59,0.00,,,0.00,WUHU216HW,2013-03-15 20:50:00,
2013-03-15 13:55:00,75.6,60.9,30.02,SSW,211,2.6,4.0,60,0.00,,,0.00,WUHU216HW,2013-03-15 20:55:00,
2013-03-15 14:00:00,76.1,60.8,30.02,South,176,3.2,4.7,59,0.00,,,0.00,WUHU216HW,2013-03-15 21:00:00,
2013-03-15 14:05:00,76.5,59.6,30.02,WSW,248,2.9,4.7,56,0.00,,,0.00,WUHU216HW,2013-03-15 21:05:00,
2013-03-15 14:10:00,76.9,59.0,30.01,SSE,158,4.0,4.5,54,0.00,,,0.00,WUHU216HW,2013-03-15 21:10:00,
2013-03-15 14:15:00,77.2,59.8,30.01,WSW,248,4.3,4.7,55,0.00,,,0.00,WUHU216HW,2013-03-15 21:15:00,
2013-03-15 14:20:00,77.4,60.0,30.01,SW,225,2.0,4.7,55,0.00,,,0.00,WUHU216HW,2013-03-15 21:20:00,
2013-03-15 14:25:00,77.6,59.0,30.02,SSE,161,2.5,4.7,53,0.00,,,0.00,WUHU216HW,2013-03-15 21:25:00,
2013-03-15 14:30:00,77.9,59.4,30.02,SE,135,2.9,4.7,53,0.00,,,0.00,WUHU216HW,2013-03-15 21:30:00,
2013-03-15 14:35:00,78.1,59.0,30.02,South,180,4.7,5.1,52,0.00,,,0.00,WUHU216HW,2013-03-15 21:35:00,
2013-03-15 14:40:00,78.5,59.4,30.02,South,182,2.0,5.1,52,0.00,,,0.00,WUHU216HW,2013-03-15 21:40:00,
2013-03-15 14:45:00,78.7,59.1,30.01,SW,223,3.2,4.7,51,0.00,,,0.00,WUHU216HW,2013-03-15 21:45:00,
2013-03-15 14:50:00,78.5,59.4,30.01,WSW,248,3.1,5.4,52,0.00,,,0.00,WUHU216HW,2013-03-15 21:50:00,
2013-03-15 14:55:00,78.1,59.6,30.01,WNW,293,3.4,5.4,53,0.00,,,0.00,WUHU216HW,2013-03-15 21:55:00,
2013-03-15 15:00:00,77.9,60.0,30.00,SW,215,2.1,4.5,54,0.00,,,0.00,WUHU216HW,2013-03-15 22:00:00,
2013-03-15 15:05:00,77.8,60.3,30.00,West,270,2.5,4.3,55,0.00,,,0.00,WUHU216HW,2013-03-15 22:05:00,
2013-03-15 15:10:00,77.6,60.1,30.00,SW,225,4.7,4.9,55,0.00,,,0.00,WUHU216HW,2013-03-15 22:10:00,
2013-03-15 15:15:00,77.6,60.1,30.00,SSW,203,1.8,5.4,55,0.00,,,0.00,WUHU216HW,2013-03-15 22:15:00,
2013-03-15 15:20:00,77.8,60.3,30.00,South,184,1.7,5.4,55,0.00,,,0.00,WUHU216HW,2013-03-15 22:20:00,
2013-03-15 15:25:00,77.4,59.4,30.00,NNW,338,3.4,4.9,54,0.00,,,0.00,WUHU216HW,2013-03-15 22:25:00,
2013-03-15 15:30:00,77.4,60.0,30.00,West,267,2.0,4.9,55,0.00,,,0.00,WUHU216HW,2013-03-15 22:30:00,
2013-03-15 15:35:00,77.8,59.8,30.00,South,187,2.3,4.0,54,0.00,,,0.00,WUHU216HW,2013-03-15 22:35:00,
2013-03-15 15:40:00,78.3,60.8,30.00,SSW,203,1.3,4.0,55,0.00,,,0.00,WUHU216HW,2013-03-15 22:40:00,
2013-03-15 15:45:00,78.8,60.8,30.00,SW,224,1.9,4.7,54,0.00,,,0.00,WUHU216HW,2013-03-15 22:45:00,
2013-03-15 15:50:00,78.5,60.0,30.00,South,180,3.4,4.7,53,0.00,,,0.00,WUHU216HW,2013-03-15 22:50:00,
2013-03-15 15:55:00,77.6,60.1,30.00,WSW,238,1.4,4.5,55,0.00,,,0.00,WUHU216HW,2013-03-15 22:55:00,
2013-03-15 16:00:00,77.4,60.0,30.00,SW,218,2.1,4.0,55,0.00,,,0.00,WUHU216HW,2013-03-15 23:00:00,
2013-03-15 16:05:00,77.0,59.6,29.99,SE,135,3.4,4.7,55,0.00,,,0.00,WUHU216HW,2013-03-15 23:05:00,
2013-03-15 16:10:00,77.0,60.1,29.99,South,191,2.6,4.7,56,0.00,,,0.00,WUHU216HW,2013-03-15 23:10:00,
2013-03-15 16:15:00,76.9,60.0,29.99,SSW,213,1.5,3.4,56,0.00,,,0.00,WUHU216HW,2013-03-15 23:15:00,
2013-03-15 16:20:00,76.9,60.4,29.99,West,270,1.3,2.9,57,0.00,,,0.00,WUHU216HW,2013-03-15 23:20:00,
2013-03-15 16:25:00,77.2,60.3,29.99,SSW,208,2.2,3.4,56,0.00,,,0.00,WUHU216HW,2013-03-15 23:25:00,
2013-03-15 16:30:00,77.4,60.0,30.00,SSW,203,2.0,3.4,55,0.00,,,0.00,WUHU216HW,2013-03-15 23:30:00,
2013-03-15 16:35:00,77.6,60.1,29.99,SSW,207,2.4,3.4,55,0.00,,,0.00,WUHU216HW,2013-03-15 23:35:00,
2013-03-15 16:40:00,78.1,60.1,30.00,SSW,206,1.2,3.4,54,0.00,,,0.00,WUHU216HW,2013-03-15 23:40:00,
2013-03-15 16:45:00,78.7,60.6,29.99,WNW,283,1.1,2.9,54,0.00,,,0.00,WUHU216HW,2013-03-15 23:45:00,
2013-03-15 16:50:00,78.8,60.8,30.00,West,272,1.2,2.9,54,0.00,,,0.00,WUHU216HW,2013-03-15 23:50:00,
2013-03-15 16:55:00,78.5,60.0,30.00,South,186,2.0,3.1,53,0.00,,,0.00,WUHU216HW,2013-03-15 23:55:00,
2013-03-15 17:00:00,78.5,60.4,30.00,WSW,242,0.7,3.1,54,0.00,,,0.00,WUHU216HW,2013-03-16 00:00:00,
2013-03-15 17:05:00,78.3,60.8,30.00,WSW,248,1.8,4.0,55,0.00,,,0.00,WUHU216HW,2013-03-16 00:05:00,
2013-03-15 17:10:00,77.4,60.0,30.00,West,270,0.7,4.0,55,0.00,,,0.00,WUHU216HW,2013-03-16 00:10:00,
2013-03-15 17:15:00,76.3,59.4,30.00,WSW,255,0.7,2.0,56,0.00,,,0.00,WUHU216HW,2013-03-16 00:15:00,
2013-03-15 17:20:00,76.0,59.6,30.01,West,271,3.7,4.7,57,0.00,,,0.00,WUHU216HW,2013-03-16 00:20:00,
2013-03-15 17:25:00,75.8,59.9,30.01,West,273,3.3,4.7,58,0.00,,,0.00,WUHU216HW,2013-03-16 00:25:00,
2013-03-15 17:30:00,75.8,59.9,30.01,NW,315,3.1,3.8,58,0.00,,,0.00,WUHU216HW,2013-03-16 00:30:00,
2013-03-15 17:35:00,75.6,59.8,30.01,WNW,290,2.7,3.8,58,0.00,,,0.00,WUHU216HW,2013-03-16 00:35:00,
2013-03-15 17:40:00,75.6,59.8,30.01,WSW,248,1.8,3.4,58,0.00,,,0.00,WUHU216HW,2013-03-16 00:40:00,
2013-03-15 17:45:00,75.6,59.8,30.00,WNW,291,0.7,3.4,58,0.00,,,0.00,WUHU216HW,2013-03-16 00:45:00,
2013-03-15 17:50:00,75.6,59.8,30.00,WNW,286,1.1,2.2,58,0.00,,,0.00,WUHU216HW,2013-03-16 00:50:00,
2013-03-15 17:55:00,75.6,59.8,30.00,WNW,289,1.4,2.5,58,0.00,,,0.00,WUHU216HW,2013-03-16 00:55:00,
2013-03-15 18:00:00,75.4,59.1,30.00,West,270,1.8,2.5,57,0.00,,,0.00,WUHU216HW,2013-03-16 01:00:00,
2013-03-15 18:05:00,75.2,59.0,30.00,WNW,293,1.6,2.0,57,0.00,,,0.00,WUHU216HW,2013-03-16 01:05:00,
2013-03-15 18:10:00,75.2,59.0,30.00,SSW,203,0.0,2.0,57,0.00,,,0.00,WUHU216HW,2013-03-16 01:10:00,
2013-03-15 18:15:00,75.2,59.0,30.00,SSW,203,0.0,1.8,57,0.00,,,0.00,WUHU216HW,2013-03-16 01:15:00,
2013-03-15 18:20:00,75.4,58.6,30.00,West,270,0.0,0.0,56,0.00,,,0.00,WUHU216HW,2013-03-16 01:20:00,
2013-03-15 18:25:00,75.4,58.2,30.00,NNE,23,0.0,0.4,55,0.00,,,0.00,WUHU216HW,2013-03-16 01:25:00,
2013-03-15 18:30:00,75.4,58.6,30.00,NNE,23,0.0,0.4,56,0.00,,,0.00,WUHU216HW,2013-03-16 01:30:00,
2013-03-15 18:35:00,75.2,58.5,30.00,NNE,23,0.0,0.0,56,0.00,,,0.00,WUHU216HW,2013-03-16 01:35:00,
2013-03-15 18:40:00,74.9,58.6,30.00,NNE,23,0.0,0.0,57,0.00,,,0.00,WUHU216HW,2013-03-16 01:40:00,
2013-03-15 18:45:00,74.5,58.8,29.99,NNE,23,0.0,0.0,58,0.00,,,0.00,WUHU216HW,2013-03-16 01:45:00,
2013-03-15 18:50:00,74.2,58.9,30.00,NNE,23,0.0,0.0,59,0.00,,,0.00,WUHU216HW,2013-03-16 01:50:00,
2013-03-15 18:55:00,73.8,59.0,30.00,NNE,23,0.0,0.0,60,0.00,,,0.00,WUHU216HW,2013-03-16 01:55:00,
2013-03-15 19:00:00,73.3,59.0,30.01,NNE,23,0.0,0.0,61,0.00,,,0.00,WUHU216HW,2013-03-16 02:00:00,
2013-03-15 19:05:00,72.7,58.5,30.00,NNE,23,0.0,0.0,61,0.00,,,0.00,WUHU216HW,2013-03-16 02:05:00,
2013-03-15 19:10:00,72.2,58.4,30.00,NNE,23,0.0,0.0,62,0.00,,,0.00,WUHU216HW,2013-03-16 02:10:00,
2013-03-15 19:15:00,71.6,58.3,30.00,NE,45,0.0,0.0,63,0.00,,,0.00,WUHU216HW,2013-03-16 02:15:00,
2013-03-15 19:20:00,70.9,57.7,30.00,NE,45,0.0,0.0,63,0.00,,,0.00,WUHU216HW,2013-03-16 02:20:00,
2013-03-15 19:25:00,70.2,57.4,30.00,NE,45,0.0,0.0,64,0.00,,,0.00,WUHU216HW,2013-03-16 02:25:00,
2013-03-15 19:30:00,69.7,57.3,30.00,NE,45,0.0,0.0,65,0.00,,,0.00,WUHU216HW,2013-03-16 02:30:00,
2013-03-15 19:35:00,69.5,57.2,30.01,NE,45,0.0,0.0,65,0.00,,,0.00,WUHU216HW,2013-03-16 02:35:00,
2013-03-15 19:40:00,68.9,56.7,30.01,North,0,0.0,0.0,65,0.00,,,0.00,WUHU216HW,2013-03-16 02:40:00,
2013-03-15 19:45:00,68.2,56.8,30.00,North,0,0.0,0.0,67,0.00,,,0.00,WUHU216HW,2013-03-16 02:45:00,
2013-03-15 19:50:00,67.9,56.9,30.01,North,0,0.0,0.0,68,0.00,,,0.00,WUHU216HW,2013-03-16 02:50:00,
2013-03-15 19:55:00,67.5,56.6,30.00,North,0,0.0,0.0,68,0.00,,,0.00,WUHU216HW,2013-03-16 02:55:00,
2013-03-15 20:00:00,67.0,56.4,30.00,NNE,23,0.0,0.0,69,0.00,,,0.00,WUHU216HW,2013-03-16 03:00:00,
2013-03-15 20:05:00,66.8,56.7,30.01,NNE,23,0.0,0.0,70,0.00,,,0.00,WUHU216HW,2013-03-16 03:05:00,
2013-03-15 20:10:00,66.6,56.5,30.01,NNE,23,0.0,0.0,70,0.00,,,0.00,WUHU216HW,2013-03-16 03:10:00,
2013-03-15 20:15:00,66.4,56.3,30.01,NNE,23,0.0,0.0,70,0.00,,,0.00,WUHU216HW,2013-03-16 03:15:00,
2013-03-15 20:20:00,66.1,57.2,30.01,NW,315,0.4,1.1,73,0.00,,,0.00,WUHU216HW,2013-03-16 03:20:00,
2013-03-15 20:25:00,65.3,56.4,30.02,NW,315,0.9,1.1,73,0.00,,,0.00,WUHU216HW,2013-03-16 03:25:00,
2013-03-15 20:30:00,64.8,56.4,30.02,NW,313,0.6,1.3,74,0.00,,,0.00,WUHU216HW,2013-03-16 03:30:00,
2013-03-15 20:35:00,64.3,56.5,30.02,NW,318,0.3,1.3,76,0.00,,,0.00,WUHU216HW,2013-03-16 03:35:00,
2013-03-15 20:40:00,63.9,55.8,30.02,NW,315,0.0,0.9,75,0.00,,,0.00,WUHU216HW,2013-03-16 03:40:00,
2013-03-15 20:45:00,63.7,56.3,30.02,North,0,0.2,0.9,77,0.00,,,0.00,WUHU216HW,2013-03-16 03:45:00,
2013-03-15 20:50:00,63.9,56.5,30.02,North,0,0.3,0.4,77,0.00,,,0.00,WUHU216HW,2013-03-16 03:50:00,
2013-03-15 20:55:00,64.6,56.5,30.02,North,0,0.2,0.4,75,0.00,,,0.00,WUHU216HW,2013-03-16 03:55:00,
2013-03-15 21:00:00,64.8,56.7,30.02,North,0,0.0,0.2,75,0.00,,,0.00,WUHU216HW,2013-03-16 04:00:00,
2013-03-15 21:05:00,65.0,56.5,30.00,North,0,0.0,0.2,74,0.00,,,0.00,WUHU216HW,2013-03-16 04:05:00,
2013-03-15 21:10:00,64.8,56.4,30.01,North,0,0.0,0.0,74,0.00,,,0.00,WUHU216HW,2013-03-16 04:10:00,
2013-03-15 21:15:00,64.4,56.0,30.01,SE,135,0.0,0.0,74,0.00,,,0.00,WUHU216HW,2013-03-16 04:15:00,
2013-03-15 21:20:00,64.3,56.2,30.01,SE,135,0.0,0.0,75,0.00,,,0.00,WUHU216HW,2013-03-16 04:20:00,
2013-03-15 21:25:00,63.9,55.8,30.01,SE,135,0.0,0.0,75,0.00,,,0.00,WUHU216HW,2013-03-16 04:25:00,
2013-03-15 21:30:00,63.4,55.3,30.02,SE,135,0.0,0.0,75,0.00,,,0.00,WUHU216HW,2013-03-16 04:30:00,
2013-03-15 21:35:00,63.0,54.9,30.02,SE,135,0.0,0.0,75,0.00,,,0.00,WUHU216HW,2013-03-16 04:35:00,
2013-03-15 21:40:00,62.6,54.2,30.02,NW,315,0.0,0.4,74,0.00,,,0.00,WUHU216HW,2013-03-16 04:40:00,
2013-03-15 21:45:00,62.1,54.1,30.02,NW,315,0.0,0.4,75,0.00,,,0.00,WUHU216HW,2013-03-16 04:45:00,
2013-03-15 21:50:00,61.7,54.1,30.02,NW,315,0.0,0.0,76,0.00,,,0.00,WUHU216HW,2013-03-16 04:50:00,
2013-03-15 21:55:00,61.7,54.1,30.02,NW,315,0.0,0.0,76,0.00,,,0.00,WUHU216HW,2013-03-16 04:55:00,
2013-03-15 22:00:00,61.4,53.7,30.02,NW,315,0.0,0.0,76,0.00,,,0.00,WUHU216HW,2013-03-16 05:00:00,
2013-03-15 22:05:00,61.2,54.0,30.02,NW,315,0.0,0.0,77,0.00,,,0.00,WUHU216HW,2013-03-16 05:05:00,
2013-03-15 22:10:00,61.0,54.2,30.02,NNW,338,0.0,0.0,78,0.00,,,0.00,WUHU216HW,2013-03-16 05:10:00,
2013-03-15 22:15:00,60.8,54.0,30.02,NNW,338,0.0,0.0,78,0.00,,,0.00,WUHU216HW,2013-03-16 05:15:00,
2013-03-15 22:20:00,60.7,54.2,30.02,NNW,338,0.0,0.0,79,0.00,,,0.00,WUHU216HW,2013-03-16 05:20:00,
2013-03-15 22:25:00,60.5,54.0,30.02,NNW,338,0.0,0.0,79,0.00,,,0.00,WUHU216HW,2013-03-16 05:25:00,
2013-03-15 22:30:00,60.1,53.3,30.02,NNW,338,0.0,0.0,78,0.00,,,0.00,WUHU216HW,2013-03-16 05:30:00,
2013-03-15 22:35:00,60.1,53.3,30.02,NNW,338,0.0,0.0,78,0.00,,,0.00,WUHU216HW,2013-03-16 05:35:00,
2013-03-15 22:40:00,60.1,53.3,30.02,NNW,338,0.0,0.0,78,0.00,,,0.00,WUHU216HW,2013-03-16 05:40:00,
2013-03-15 22:59:00,59.0,52.9,30.01,ENE,68,0.0,0.0,80,0.00,,,0.00,WUHU216HW,2013-03-16 05:59:00,
2013-03-15 23:04:00,58.9,52.4,30.01,ENE,68,0.0,0.0,79,0.00,,,0.00,WUHU216HW,2013-03-16 06:04:00,
2013-03-15 23:09:00,58.7,52.2,30.01,ENE,68,0.0,0.0,79,0.00,,,0.00,WUHU216HW,2013-03-16 06:09:00,
2013-03-15 23:14:00,58.5,52.0,30.01,ENE,68,0.0,0.0,79,0.00,,,0.00,WUHU216HW,2013-03-16 06:14:00,
2013-03-15 23:19:00,58.0,51.5,30.01,ENE,68,0.0,0.0,79,0.00,,,0.00,WUHU216HW,2013-03-16 06:19:00,
2013-03-15 23:24:00,57.6,51.1,30.01,North,0,0.0,0.0,79,0.00,,,0.00,WUHU216HW,2013-03-16 06:24:00,
2013-03-15 23:29:00,57.2,51.1,30.01,North,0,0.0,0.0,80,0.00,,,0.00,WUHU216HW,2013-03-16 06:29:00,
2013-03-15 23:34:00,56.9,51.1,30.01,ENE,68,0.0,0.0,81,0.00,,,0.00,WUHU216HW,2013-03-16 06:34:00,
2013-03-15 23:39:00,56.7,51.0,30.01,ENE,68,0.0,0.0,81,0.00,,,0.00,WUHU216HW,2013-03-16 06:39:00,
2013-03-15 23:44:00,56.5,50.8,30.01,ESE,113,0.0,0.0,81,0.00,,,0.00,WUHU216HW,2013-03-16 06:44:00,
2013-03-15 23:49:00,56.5,50.8,30.00,ESE,113,0.0,0.0,81,0.00,,,0.00,WUHU216HW,2013-03-16 06:49:00,
2013-03-15 23:54:00,56.3,50.6,30.01,ESE,113,0.0,0.0,81,0.00,,,0.00,WUHU216HW,2013-03-16 06:54:00,
2013-03-15 23:59:00,56.2,50.4,30.01,North,0,0.0,0.4,81,0.00,,,0.00,WUHU216HW,2013-03-16 06:59:00,